RH
82 84 85 83 84 87 87 88 89 87 87 86 84 84 84 83 83 84 83 81 81 81 81 81 79 76 69 65 68 70 71 72 69 65 63 62 63 63 64 65 68 75 73 63 58 56 54 55 56 55 54 53 51 48 46 45 44 45 48 52 55 54 55
84 84 86 88 90 91 92 93 93 90 88 86 85 86 88 88 88 89 88 86 86 86 86 87 86 86 84 79 76 72 71 75 75 73 69 66 66 65 65 66 67 72 74 69 63 59 58 58 58 58 57 55 54 51 49 47 47 49 51 53 55 54 53
86 86 87 92 94 93 93 94 93 90 87 86 87 87 89 89 88 89 89 88 88 88 88 90 90 90 90 88 87 82 76 75 77 79 76 71 69 68 66 67 67 69 72 71 66 62 61 61 61 60 59 58 57 54 53 52 50 51 52 51 53 54 52
88 89 91 93 95 93 93 95 94 92 90 89 89 90 90 89 87 88 88 87 89 89 88 91 94 94 93 93 94 93 87 78 75 80 82 77 72 71 69 67 67 69 69 69 68 64 61 62 63 63 61 60 60 57 56 55 54 54 53 52 53 52 51
89 92 96 96 96 96 95 96 95 94 94 94 93 92 92 90 88 87 88 87 87 87 88 89 90 90 89 91 93 95 94 87 77 77 84 83 76 73 72 70 68 68 68 69 70 66 63 62 64 65 64 63 62 60 58 57 56 55 54 54 54 52 52
93 95 98 98 97 97 96 96 96 95 94 93 93 92 91 89 88 86 86 86 85 85 85 86 87 87 86 88 92 92 93 94 87 80 82 86 83 76 74 74 71 69 68 69 70 69 66 65 66 67 67 65 64 63 62 60 59 59 56 56 56 55 55
95 96 97 97 97 97 96 95 94 93 94 93 92 91 89 89 89 88 87 87 87 86 87 87 87 87 86 87 91 91 90 93 95 90 82 83 88 84 77 76 75 72 71 71 71 72 71 69 69 69 68 67 66 66 65 64 65 67 65 61 60 60 58
95 97 97 96 97 97 96 95 95 94 93 92 91 91 92 93 93 94 95 95 94 92 92 92 90 90 90 89 90 92 93 92 94 96 88 81 85 88 84 80 78 76 75 75 75 75 73 72 71 71 70 70 71 72 71 68 68 72 71 66 64 62 60
95 96 96 97 97 96 96 95 94 94 94 95 96 97 98 99 99 100 100 100 100 98 97 96 96 94 91 90 90 90 92 92 92 96 94 86 84 88 88 83 80 79 78 77 78 77 74 75 74 73 73 74 76 77 74 71 70 72 72 70 68 65 62
95 96 96 96 96 95 96 95 92 95 100 102 101 100 100 100 100 101 101 99 97 95 94 93 93 91 88 86 86 84 84 84 84 86 90 88 85 87 89 86 81 80 79 78 79 78 76 77 77 74 74 75 76 75 74 73 73 74 74 73 75 73 67
96 97 97 97 97 95 95 94 93 99 105 103 100 99 99 100 100 100 100 100 97 95 95 92 90 90 89 87 87 86 84 83 81 79 81 84 84 84 87 87 82 80 79 78 79 77 76 78 78 75 74 75 74 75 76 75 74 76 77 78 82 81 73
97 98 97 97 97 95 95 93 95 103 105 102 101 93 85 89 96 98 98 98 98 96 95 94 91 89 89 88 89 89 90 91 89 84 78 78 80 80 82 84 82 78 78 78 79 79 77 76 76 75 75 75 75 77 79 77 76 77 79 80 82 82 76
98 97 97 97 96 96 95 92 95 103 103 100 95 83 78 88 96 99 101 99 98 97 95 95 95 93 91 90 91 92 92 93 93 90 85 81 81 81 81 81 80 78 76 74 74 77 76 73 74 76 76 76 76 77 80 81 80 79 80 81 82 81 75
98 97 96 96 95 95 95 90 93 102 102 99 92 79 82 97 100 100 103 100 98 97 95 95 94 93 91 89 88 90 92 94 94 92 92 91 89 89 86 82 81 82 81 79 76 75 73 70 71 75 77 76 75 75 77 80 81 82 83 82 79 77 71
98 97 95 96 95 96 95 89 94 102 100 97 97 88 91 103 103 100 102 100 98 96 94 94 93 92 92 89 87 87 84 86 91 91 89 91 92 92 91 88 84 79 80 84 85 82 78 74 72 74 76 75 75 73 71 74 76 77 79 79 79 80 76
98 97 96 95 94 96 95 87 90 100 96 92 98 98 98 102 102 101 101 98 96 94 92 94 94 94 93 90 89 87 77 73 81 87 88 91 92 91 92 92 86 78 77 80 83 86 87 83 77 76 76 75 75 73 71 75 79 78 82 86 89 90 86
97 96 96 96 93 94 95 86 86 98 98 94 97 99 99 102 102 100 100 96 94 94 93 92 93 94 94 91 90 89 80 73 78 84 88 91 93 93 93 93 87 82 80 78 78 81 85 84 81 81 81 81 80 77 75 82 90 90 90 93 95 96 92
98 96 95 96 92 91 95 90 86 96 103 100 97 97 99 101 100 97 96 95 93 93 92 91 91 92 93 93 91 88 82 78 78 83 88 91 94 95 94 93 90 85 82 79 80 83 84 84 82 81 84 86 85 83 83 84 89 92 93 94 95 94 91
98 97 93 92 91 89 93 92 86 88 99 103 98 93 92 95 97 97 96 95 94 94 93 92 91 91 92 91 86 83 82 77 73 79 86 89 93 97 94 90 88 88 87 84 86 90 91 92 89 84 86 87 84 88 92 86 83 87 92 93 92 90 91
97 96 93 90 89 88 88 89 84 82 95 105 98 89 89 93 96 98 98 97 95 96 95 92 91 92 91 86 80 79 82 77 68 73 82 87 92 94 89 87 88 91 90 88 89 93 94 96 96 92 94 94 89 92 98 92 85 85 87 89 90 88 89
95 95 93 89 88 88 85 84 83 83 93 102 97 90 91 96 97 98 100 99 98 98 98 96 95 93 87 83 83 83 84 81 73 73 80 86 90 88 85 87 91 92 91 89 91 94 93 94 97 98 99 99 96 98 101 98 92 88 86 86 87 88 88
94 94 94 89 87 87 83 80 81 83 89 97 96 92 92 95 98 97 95 96 99 100 98 95 93 88 84 86 89 86 85 85 80 77 79 84 87 86 86 89 90 92 95 94 94 97 96 94 95 97 96 95 94 96 100 100 97 92 89 87 84 84 84
94 94 95 92 88 86 83 81 81 83 87 94 96 94 91 91 91 87 85 90 97 98 96 94 91 88 88 90 90 86 84 86 85 83 83 82 80 78 82 90 92 93 99 100 98 100 102 99 95 93 92 91 88 87 93 100 100 94 91 90 86 83 79
96 97 98 95 91 87 84 82 83 85 88 90 93 97 96 89 81 76 80 88 95 97 97 92 86 85 86 87 84 83 84 86 89 90 85 79 76 76 83 94 97 97 100 102 102 102 101 100 98 93 91 91 85 77 84 97 100 96 94 92 87 85 82
98 98 98 98 96 92 88 86 87 87 87 87 91 97 98 93 85 82 87 93 97 99 96 87 81 82 86 89 89 89 89 89 91 92 88 81 80 86 93 98 98 98 100 101 101 101 100 98 97 93 88 89 84 75 81 97 102 98 98 96 90 88 86
100 99 99 99 98 96 93 91 90 89 87 88 93 95 96 97 96 92 94 97 97 97 96 93 88 83 83 91 97 95 95 96 94 93 93 89 87 92 98 99 98 98 100 100 98 98 98 96 95 92 87 87 85 80 85 99 102 99 100 100 97 97 93
99 100 100 99 99 99 98 95 94 92 90 93 98 99 98 101 99 92 90 95 96 93 90 88 83 79 83 96 101 95 94 98 96 92 93 95 97 99 98 96 93 90 91 92 93 94 95 93 94 94 90 90 91 88 89 98 101 99 100 100 99 101 100
100 100 99 100 100 101 99 96 95 97 98 99 102 102 100 101 100 94 92 96 98 94 87 83 85 90 97 101 100 94 94 98 98 95 93 94 98 101 99 95 91 89 88 89 91 94 96 96 97 99 97 96 97 92 90 95 101 100 99 100 100 100 100
102 102 101 100 101 102 100 96 96 99 100 98 100 101 101 100 101 99 98 99 100 97 94 93 96 100 101 100 97 94 94 94 94 95 94 91 91 95 99 100 98 97 96 95 95 96 98 99 100 101 100 99 99 94 90 93 99 100 99 100 100 98 96
100 101 102 102 101 102 102 99 98 99 98 95 95 98 100 100 100 100 101 100 97 97 98 100 100 100 101 101 97 94 93 92 93 93 92 91 89 89 93 99 101 100 99 99 98 97 98 99 100 101 102 100 98 95 92 92 95 98 100 100 100 96 94
96 97 100 102 102 103 102 99 98 99 98 97 96 98 101 101 99 101 103 94 87 90 97 100 100 100 102 101 97 96 95 93 94 94 92 91 90 87 86 93 99 100 100 100 99 98 98 99 99 99 101 100 97 94 94 94 94 97 100 100 99 96 96
98 95 95 98 101 103 103 100 100 100 99 99 100 100 102 101 99 103 100 86 79 89 99 99 97 98 100 100 100 100 98 94 93 95 95 95 94 90 88 92 97 99 99 100 100 100 99 100 99 98 99 98 94 92 93 93 93 96 99 99 98 97 96
103 102 98 97 99 100 100 99 101 101 100 100 101 100 102 102 102 103 99 89 88 96 100 98 97 98 98 100 100 100 101 99 98 97 96 97 98 96 92 90 93 97 99 99 99 99 99 99 98 97 97 95 92 93 94 91 89 92 95 96 97 96 94
97 99 99 99 100 99 99 99 100 101 100 100 101 101 103 102 97 93 92 92 97 100 99 98 100 99 99 100 100 99 100 100 100 99 99 98 99 99 95 90 91 95 99 100 100 100 99 97 96 97 97 96 94 97 98 92 88 90 92 92 93 93 93
93 92 94 97 97 99 100 99 99 101 101 100 100 102 101 98 92 89 90 93 97 100 100 100 100 100 99 100 100 100 100 100 100 101 101 99 100 100 98 96 97 97 98 100 100 101 99 97 96 98 97 95 94 97 98 95 93 92 91 89 90 91 93
95 92 93 94 94 98 101 99 98 101 101 100 102 102 99 96 95 96 98 99 99 100 100 100 99 100 100 100 99 100 100 100 100 101 101 100 100 99 98 100 101 100 100 100 99 100 99 98 98 99 98 96 95 95 95 95 95 94 92 92 91 92 95
Wind_Speed
30 30 31 33 33 32 30 29 28 27 26 27 28 28 28 29 29 30 32 33 34 33 31 31 33 36 36 35 36 38 37 36 36 35 36 35 34 34 33 32 24 14 15 21 21 22 26 24 22 25 26 27 28 26 25 26 27 27 27 28 27 27 26
30 31 31 31 31 30 29 27 27 27 27 28 30 30 29 28 28 29 31 33 35 35 33 33 35 37 37 35 35 37 39 39 38 36 36 36 35 34 34 33 30 21 14 17 20 22 26 25 23 26 27 27 30 29 27 28 29 29 29 29 29 29 28
30 31 30 30 30 30 29 28 28 29 29 29 31 31 30 30 30 31 32 34 36 37 35 35 36 39 38 35 34 36 37 38 39 38 37 38 37 36 36 35 34 28 19 17 20 23 26 25 23 26 28 27 29 31 30 30 31 31 31 31 31 31 30
30 30 30 30 31 31 29 29 29 30 30 29 30 31 31 31 32 33 34 36 37 37 36 34 34 36 37 35 34 37 37 37 39 39 37 38 38 37 37 37 35 33 29 23 20 22 27 26 24 26 29 27 27 30 32 32 32 33 34 34 33 32 32
30 29 29 29 30 30 30 29 29 29 30 29 29 30 31 33 35 37 39 41 42 41 40 38 38 40 40 38 37 38 39 38 39 40 38 37 38 37 37 37 35 35 34 28 23 23 26 27 25 25 27 27 27 29 30 32 33 34 34 35 34 33 32
31 30 30 30 31 31 31 31 30 31 32 33 33 34 36 39 42 43 44 45 46 45 44 43 43 44 44 41 40 39 38 38 37 39 39 37 37 37 36 35 35 34 33 31 28 27 26 26 25 24 24 25 27 28 28 29 31 33 34 34 32 32 32
34 33 31 31 33 33 34 35 36 37 37 38 38 39 41 43 43 45 45 45 45 45 45 45 45 45 44 42 41 40 39 39 38 37 39 39 37 36 35 34 33 33 32 30 28 27 26 26 26 24 24 25 27 29 30 29 27 26 29 31 31 32 32
37 35 34 35 36 37 36 37 39 39 39 41 41 42 42 43 44 46 48 49 48 46 44 43 42 41 41 40 40 40 39 39 38 36 36 38 38 36 35 34 32 31 30 28 26 24 26 26 24 24 24 23 23 24 26 28 25 22 24 28 30 32 31
37 38 39 39 39 39 39 39 40 40 40 40 41 40 41 42 43 43 44 43 42 38 36 36 36 37 38 39 39 39 38 38 39 37 35 35 37 37 36 34 32 30 28 26 23 22 23 22 21 22 22 20 22 23 24 25 25 24 24 24 26 29 30
39 40 40 41 41 41 40 41 42 41 40 39 39 39 39 38 38 36 35 35 35 35 35 36 38 40 41 42 42 43 42 42 42 42 41 40 39 39 36 34 32 30 28 25 20 20 21 16 15 22 23 21 24 26 25 24 24 24 23 19 19 22 26
40 40 40 40 41 42 42 43 43 41 40 40 40 40 40 39 39 38 38 39 39 40 41 41 43 44 44 46 47 47 46 46 45 45 45 45 44 45 42 37 33 30 29 27 22 21 22 17 16 23 25 24 26 25 24 24 25 24 21 17 13 11 16
40 40 40 40 41 43 44 44 43 41 41 42 42 43 45 46 46 43 42 43 42 42 42 42 43 44 45 46 46 46 45 45 45 44 44 44 45 47 49 45 41 37 33 30 25 22 23 22 22 24 26 27 26 23 24 25 25 24 23 19 15 12 13
40 41 41 40 41 43 45 46 45 43 43 45 46 46 47 48 48 45 43 43 42 41 41 40 40 41 43 43 43 43 43 44 45 44 43 43 43 45 48 50 48 46 42 38 32 27 27 29 28 26 27 29 27 24 24 24 25 25 24 22 20 20 20
42 42 42 42 42 44 45 47 47 44 44 46 48 49 48 48 47 45 43 43 42 41 41 40 39 40 41 41 40 40 41 41 42 41 40 40 40 41 44 47 47 46 45 42 38 34 33 34 33 30 29 29 29 29 27 26 26 26 25 25 25 25 26
42 43 44 44 43 44 46 48 47 45 46 48 48 49 49 48 46 45 44 45 43 42 42 41 40 40 40 40 40 40 40 40 39 38 37 38 38 38 40 41 43 43 42 39 36 35 36 37 36 35 33 31 32 34 33 32 31 31 29 28 26 24 25
42 43 44 45 44 43 46 49 48 46 48 49 49 48 49 47 45 44 44 44 44 43 42 41 41 40 40 40 40 40 41 42 39 37 36 35 35 36 36 37 40 40 39 38 36 35 35 36 37 37 36 34 34 36 35 32 29 30 28 23 17 16 19
43 43 43 44 45 44 44 48 49 47 47 50 49 49 49 47 44 42 42 43 43 43 42 41 41 40 40 39 38 38 41 42 40 39 37 34 33 33 33 34 36 37 37 38 37 35 35 37 38 38 36 35 35 35 35 30 24 24 25 18 10 8 12
43 43 43 43 44 43 43 45 48 47 46 48 49 49 50 48 44 42 41 41 41 41 41 41 40 39 38 38 37 38 41 42 41 39 36 32 31 30 31 31 31 31 33 34 34 34 35 37 41 41 38 37 36 35 36 34 27 25 24 17 10 8 10
41 42 43 43 43 43 42 42 46 48 46 45 48 51 52 49 43 39 38 38 37 36 36 37 36 36 36 37 38 39 41 42 41 39 35 31 27 26 27 29 28 27 28 30 29 29 29 30 35 39 38 37 36 33 35 38 33 29 26 20 16 14 10
40 41 42 43 43 43 42 41 45 48 46 45 48 51 52 48 41 36 34 33 32 30 29 31 32 32 34 36 38 39 40 39 37 36 36 32 26 24 26 28 27 26 28 29 27 25 23 22 24 30 33 34 34 32 33 36 35 33 31 26 21 19 14
40 39 41 43 43 42 43 44 45 46 46 46 48 51 51 47 43 39 36 32 29 26 25 26 28 30 33 35 35 37 38 36 34 33 34 33 29 28 29 28 27 28 29 29 27 24 23 21 19 21 24 27 29 29 29 33 34 34 33 31 27 22 18
39 38 40 43 44 43 44 46 46 46 46 46 48 52 53 51 49 46 38 29 24 23 23 25 27 30 33 32 31 34 36 34 33 30 27 30 33 33 32 29 28 28 27 25 24 22 21 22 20 18 18 19 21 21 23 28 33 33 32 33 31 26 23
38 37 38 41 44 45 45 47 48 48 46 45 48 53 58 59 54 44 31 20 18 21 23 26 28 29 30 28 28 32 32 31 30 26 20 27 35 34 31 29 27 26 23 21 20 19 18 19 20 20 19 19 19 18 18 23 30 33 32 31 31 29 28
37 35 33 36 41 45 47 48 48 47 46 47 50 54 59 61 52 32 20 17 15 17 18 21 25 26 26 27 28 28 26 23 22 19 17 25 31 30 28 26 24 23 21 18 17 16 16 17 19 21 20 20 20 19 18 21 28 31 31 31 30 29 29
34 32 31 32 34 40 46 47 46 46 47 49 53 56 58 58 46 25 15 15 15 13 13 17 21 22 22 25 26 21 16 14 13 13 13 20 26 26 24 25 24 22 20 17 15 14 15 17 19 20 20 19 20 20 18 20 25 28 29 29 28 27 27
31 30 30 30 30 35 41 42 42 44 47 51 56 56 54 51 40 23 15 14 14 14 15 17 19 20 22 24 22 15 11 10 7 7 6 13 23 23 22 24 25 22 19 17 16 16 16 17 18 19 19 19 21 22 20 20 23 25 26 27 25 23 24
31 29 28 28 29 33 36 36 38 41 47 52 54 50 48 46 34 19 15 15 15 16 16 17 18 19 20 20 15 9 7 6 5 7 6 4 14 18 22 26 27 25 23 22 20 19 19 19 19 19 20 21 23 24 22 21 22 23 23 24 23 20 20
32 30 28 28 29 30 31 32 34 39 45 50 48 43 45 43 28 13 12 15 13 13 14 14 14 15 14 11 8 7 6 6 6 7 9 7 7 12 20 25 26 25 24 23 21 19 17 17 17 18 19 21 22 24 23 21 19 20 21 23 21 17 15
33 30 29 30 30 28 28 29 33 39 45 48 46 42 43 43 31 17 15 14 10 10 13 12 11 10 7 5 5 6 6 6 5 5 6 7 7 8 13 18 20 20 20 19 19 17 15 16 17 17 17 18 19 21 23 21 18 18 20 22 20 15 14
34 32 31 31 30 29 28 29 34 41 46 47 46 43 41 42 39 32 23 15 11 14 15 12 10 10 8 5 4 4 4 4 3 2 2 3 4 5 8 13 16 18 18 17 17 17 17 17 17 16 16 17 17 19 20 20 18 16 17 19 19 15 14
33 33 34 34 32 31 32 33 35 40 44 45 44 42 40 38 39 37 31 26 25 25 21 16 14 13 13 11 9 6 6 5 3 2 2 4 5 6 6 10 14 15 16 16 16 16 16 16 16 16 15 16 17 17 19 20 20 17 15 14 15 14 13
32 34 37 37 36 34 35 36 36 38 41 42 41 40 39 35 34 35 35 37 37 30 22 20 18 17 18 17 15 14 13 11 9 7 6 6 8 10 10 11 12 13 15 17 17 16 15 15 15 16 16 16 16 17 18 20 20 18 16 13 12 12 12
32 33 36 38 37 36 37 38 36 36 38 39 39 39 38 34 31 32 36 39 35 25 21 21 20 19 20 19 17 17 17 14 12 11 11 9 9 11 12 13 13 12 14 16 17 16 16 16 16 16 16 16 16 16 18 21 21 20 18 15 12 11 11
34 33 33 34 35 36 37 37 36 35 36 37 37 38 36 32 32 35 40 40 32 23 21 21 20 20 21 20 19 18 18 16 15 13 11 12 11 11 13 15 15 15 15 16 16 16 16 17 17 16 16 17 16 15 17 20 21 21 19 15 13 12 12
37 36 33 32 32 34 35 36 35 34 33 35 36 36 35 33 33 36 37 35 30 25 23 21 20 20 22 22 20 20 20 18 18 16 12 11 13 13 12 13 17 18 17 17 16 15 16 17 17 16 17 19 18 15 16 17 18 19 19 18 16 15 14
37 37 33 30 31 32 34 35 35 33 32 33 34 35 35 33 30 27 26 26 26 24 23 22 21 21 23 24 23 23 24 23 23 22 16 7 9 13 13 13 17 18 17 17 16 15 15 16 15 15 17 19 17 17 17 17 18 19 19 19 18 17 16
Wind_Direction
318 317 315 316 315 312 310 308 307 306 304 302 299 297 295 293 292 290 288 289 289 287 287 286 285 283 280 278 277 274 270 264 257 251 247 244 241 239 235 234 234 239 259 260 251 251 256 254 251 252 250 252 255 252 249 248 246 245 243 241 242 244 246
317 316 314 314 312 309 307 303 302 303 302 301 299 296 294 292 291 288 287 288 288 287 287 285 283 282 281 280 279 275 271 267 261 253 247 244 240 239 236 232 232 235 248 258 250 245 252 252 245 247 248 246 249 251 247 244 243 242 242 242 244 246 249
316 315 314 311 308 307 305 301 300 302 302 300 298 296 293 291 290 288 288 288 288 288 289 287 283 281 280 280 279 277 274 271 265 257 249 244 241 238 238 234 231 232 237 251 252 245 247 248 240 242 246 242 243 247 247 245 244 243 243 245 246 248 250
314 314 312 308 306 306 303 299 298 299 299 297 295 294 292 291 290 287 287 286 286 287 287 285 283 280 280 279 277 275 275 273 270 263 253 246 242 239 237 235 231 230 233 242 250 246 245 246 241 240 243 241 239 241 243 244 244 245 246 246 246 248 251
313 312 308 304 303 302 299 297 295 295 295 293 291 291 288 288 288 286 285 285 284 284 283 281 279 278 279 279 275 273 273 272 269 267 260 249 242 239 237 235 232 230 231 235 241 246 246 245 243 241 242 238 233 234 237 240 242 243 244 245 244 246 251
312 309 305 302 301 299 296 296 294 293 293 291 289 288 286 285 286 285 284 283 282 282 280 278 277 276 276 275 271 269 269 268 266 266 263 255 244 239 236 235 233 231 230 231 235 241 245 244 241 238 239 236 230 229 230 235 240 241 239 241 242 244 249
310 308 305 302 300 298 297 297 296 295 294 292 290 288 286 285 284 283 283 282 281 281 279 277 275 274 273 270 267 266 265 265 265 264 263 259 251 241 235 234 234 231 230 230 231 235 239 242 241 237 236 236 230 227 229 230 234 238 237 238 240 244 247
309 307 305 303 300 299 298 298 297 296 294 293 291 288 286 285 283 282 281 281 281 280 278 275 272 271 270 268 266 265 263 261 261 261 260 260 256 246 237 234 233 231 229 228 227 231 235 239 241 237 235 233 223 220 226 227 227 235 238 236 238 242 245
309 307 305 304 302 301 301 299 297 296 294 291 290 287 285 284 282 280 278 278 278 277 275 273 271 269 269 270 268 266 265 262 260 259 259 259 258 252 241 233 232 229 227 226 225 227 231 235 238 234 230 225 216 217 224 224 223 232 238 235 237 242 244
309 308 306 305 304 303 302 300 298 296 293 290 288 286 285 284 283 281 279 278 279 279 277 275 274 273 272 272 271 269 268 267 264 262 261 259 258 255 245 233 229 227 224 224 224 224 226 230 236 233 227 223 222 223 223 218 216 226 233 229 234 244 245
309 308 306 305 304 303 301 300 299 296 293 291 289 287 286 285 285 283 281 280 279 278 277 276 275 275 273 272 271 270 268 266 265 263 261 259 256 254 250 238 228 225 223 222 223 224 225 227 235 234 228 226 226 221 216 213 214 221 224 216 220 242 246
309 308 307 305 304 303 301 300 299 296 294 292 290 290 291 289 286 284 282 281 280 278 276 276 274 273 272 271 270 269 267 264 263 262 261 259 255 253 253 246 234 225 222 221 223 224 226 228 234 235 229 224 223 215 210 212 215 218 218 214 218 227 231
309 308 307 306 305 303 302 301 301 298 295 293 294 296 296 293 289 286 283 282 280 278 276 274 273 273 272 271 269 268 267 264 263 262 261 259 257 254 254 252 244 231 222 220 221 222 226 229 231 233 229 223 218 211 207 209 214 218 217 216 220 223 226
310 309 308 307 306 304 303 303 303 299 296 296 298 299 298 294 291 288 285 283 281 279 277 274 272 272 272 272 271 269 268 265 262 261 260 259 258 255 253 253 250 240 231 226 223 223 227 229 229 230 229 223 216 212 210 210 213 215 215 218 224 229 233
310 310 309 308 307 305 303 304 304 301 299 299 300 300 299 296 293 290 286 284 282 279 277 274 271 270 269 270 271 270 269 266 261 259 259 256 254 253 251 249 246 243 240 236 232 231 230 229 228 227 226 222 217 216 218 218 219 219 218 220 225 229 231
310 310 309 309 308 306 303 305 306 304 303 303 301 300 300 297 293 290 286 284 282 280 277 274 270 268 268 268 267 268 268 266 262 258 255 252 250 249 247 244 242 241 240 239 239 239 236 231 227 224 224 223 219 218 220 218 219 219 214 212 215 219 223
311 310 309 308 308 306 304 306 309 306 304 305 304 301 299 296 292 288 284 281 280 278 274 272 269 267 266 266 265 265 266 264 261 257 253 248 246 243 241 240 239 238 239 239 239 240 238 233 227 223 222 222 219 219 216 210 206 207 203 199 204 211 218
311 310 309 308 307 307 304 304 308 307 304 304 304 302 300 297 292 288 284 280 277 274 272 270 268 264 263 263 263 264 263 261 257 254 252 247 241 236 233 233 233 233 236 240 243 243 239 232 226 222 220 220 220 218 213 209 206 202 196 195 202 203 209
311 310 310 309 308 308 306 304 307 309 305 303 304 304 302 299 293 287 282 278 274 270 268 266 265 262 261 262 262 262 261 261 257 252 249 244 236 228 227 228 227 225 228 233 239 242 239 230 224 220 218 219 222 218 211 211 211 204 197 198 202 199 196
312 310 311 312 312 311 310 308 309 310 308 306 307 307 305 302 297 290 284 278 272 265 262 262 262 261 262 265 267 268 267 268 264 253 244 238 229 221 223 225 221 218 220 224 227 229 229 226 222 218 215 216 219 218 211 210 211 208 204 203 202 199 196
315 313 312 314 315 315 315 314 313 312 311 310 309 308 308 305 300 295 288 279 268 259 256 258 260 261 263 266 270 274 277 278 274 260 242 231 224 222 220 216 211 212 215 217 217 216 216 216 214 210 207 207 212 216 212 207 207 209 209 207 204 199 196
317 316 315 316 317 318 318 318 317 316 315 313 312 312 312 310 307 303 296 280 260 249 249 253 257 261 265 268 272 277 280 280 277 272 251 229 223 221 215 207 203 205 207 208 208 205 204 206 207 208 207 206 208 214 213 206 204 208 211 212 210 205 200
318 318 316 318 319 319 320 321 321 320 318 316 317 318 318 318 317 314 307 289 258 244 246 251 256 261 265 270 275 277 277 275 278 283 262 230 222 217 207 198 195 197 198 197 197 196 194 198 204 208 211 214 214 217 218 210 205 208 211 213 213 213 212
319 319 317 317 318 320 322 323 323 323 323 322 322 322 322 324 325 320 311 306 283 255 247 250 256 263 269 275 281 281 280 281 288 290 263 230 218 209 197 186 184 188 190 187 187 190 194 198 202 205 210 213 212 216 221 212 206 209 212 212 214 214 215
318 319 316 315 317 318 320 323 324 325 326 327 326 325 324 325 326 316 298 306 300 276 261 261 265 273 282 290 298 302 307 313 316 308 270 226 207 195 185 177 178 182 182 183 187 192 198 203 205 206 209 209 206 209 211 203 200 205 209 210 213 213 212
318 318 316 316 316 317 319 323 324 325 328 330 329 328 325 324 323 310 286 291 296 286 279 275 277 284 291 297 305 314 323 330 342 344 300 217 199 188 174 171 175 176 177 184 191 196 201 206 207 206 206 204 201 202 203 196 191 196 201 202 203 204 206
317 317 317 317 318 318 320 322 324 327 330 330 329 328 327 327 324 307 287 291 293 291 289 285 287 290 292 300 314 331 345 360 32 39 35 173 185 176 169 173 179 181 185 190 194 199 204 205 204 202 200 199 197 197 201 198 191 189 192 195 194 193 198
315 315 318 320 320 321 322 324 326 328 328 328 331 335 338 341 340 321 309 318 315 314 315 307 302 302 300 311 342 15 30 39 56 61 63 83 124 149 165 176 182 185 191 195 195 197 197 194 194 196 197 198 196 194 198 200 194 189 190 191 190 188 190
313 316 324 328 326 324 325 326 326 326 327 334 344 349 353 359 6 1 346 342 337 338 340 331 324 329 332 344 21 44 48 46 52 65 77 87 97 125 158 173 179 184 192 194 192 191 187 183 187 191 193 195 193 192 195 196 193 189 188 189 190 191 190
323 326 334 337 333 329 329 326 324 328 335 345 354 358 360 7 15 18 14 11 12 6 359 350 346 355 6 15 25 39 42 33 35 58 99 124 123 133 158 172 180 187 192 192 191 190 187 184 184 187 188 189 189 190 191 192 193 191 185 185 188 189 189
332 334 339 341 338 335 334 333 333 337 344 352 359 2 2 5 14 21 25 34 40 31 16 4 1 360 0 359 353 349 345 337 327 295 238 211 201 199 191 185 188 190 189 189 192 194 192 189 187 187 186 185 185 186 186 188 193 195 190 188 186 181 179
336 338 341 343 342 341 341 342 342 344 350 356 2 4 3 5 12 18 25 38 43 34 14 7 9 5 360 358 353 344 334 319 302 286 270 241 222 220 213 203 201 197 189 189 192 194 194 193 191 190 189 184 183 184 184 187 191 193 194 194 186 175 174
339 341 342 343 343 344 346 347 347 349 353 359 4 5 3 4 8 15 26 36 37 24 9 9 11 5 360 356 352 348 342 329 312 294 276 260 241 228 217 209 207 202 195 195 195 195 196 196 194 192 188 184 184 183 181 185 191 194 193 192 186 180 182
339 341 342 342 343 346 348 349 349 352 356 1 6 7 5 4 9 17 25 30 27 17 10 9 5 2 359 351 345 347 346 338 332 321 292 267 255 243 226 212 204 200 200 200 198 198 198 197 201 198 184 178 184 183 175 179 188 191 188 188 189 187 188
335 339 342 343 343 345 348 349 350 352 357 3 7 8 8 11 14 15 17 17 15 11 7 4 1 360 355 348 343 346 348 345 347 347 327 279 257 252 242 216 198 196 201 201 201 204 200 196 204 203 182 174 181 179 168 172 180 182 183 188 189 187 187
331 336 339 342 344 346 348 351 352 352 356 3 7 10 14 17 15 9 5 4 5 3 0 359 359 356 353 351 347 348 353 359 4 7 4 330 253 243 241 217 194 191 197 197 201 209 203 196 203 199 179 171 175 174 170 171 171 172 179 183 181 178 178